Hourly Data Report for June 10, 2021

WRIGLEY A
NORTHWEST TERRITORIES
Current Station Operator: NAVCAN

63°12'35.000" N
123°26'12.000" W
149.70 m
2204005
YWY

Download Data

Hourly Data (June 2021)
Hourly Data Report for June 10, 2021
TIME
LST
Temp Definition
°C
Dew Point Definition
°C
Rel Hum Definition
%
Precip. Amount Definition
mm

Wind Dir Definition
10's deg

Wind Spd Definition
km/h
Visibility Definition
km
Stn Press Definition
kPa
Hmdx Definition


Wind Chill Definition


Weather Definition


00:00 18.0 4.2 40 LegendMM 12 9 LegendMM 99.20     LegendNANA
01:00 14.2 5.2 54 LegendMM 17 9 LegendMM 99.22     LegendNANA
02:00 16.5 2.8 40 LegendMM 13 9 LegendMM 99.22     LegendNANA
03:00 16.9 2.0 36 LegendMM 12 11 LegendMM 99.22     LegendNANA
04:00 13.7 3.4 49 LegendMM 14 13 LegendMM 99.23     LegendNANA
05:00 13.0 3.9 53 LegendMM 15 10 LegendMM 99.20     LegendNANA
06:00 14.0 3.8 50 LegendMM 13 9 LegendMM 99.23     LegendNANA
07:00 15.5 5.4 51 LegendMM 12 7 LegendMM 99.25     LegendNANA
08:00 16.8 5.0 45 LegendMM 14 10 LegendMM 99.25     LegendNANA
09:00 18.2 4.2 39 LegendMM 14 14 LegendMM 99.23     LegendNANA
10:00 20.3 5.3 37 LegendMM 15 14 LegendMM 99.22     LegendNANA
11:00 21.6 4.6 32 LegendMM 17 14 LegendMM 99.18     LegendNANA
12:00 22.5 2.9 27 LegendMM 14 12 LegendMM 99.13     LegendNANA
13:00 23.2 2.9 26 LegendMM 10 13 LegendMM 99.09     LegendNANA
14:00 23.0 3.3 27 LegendMM 10 19 LegendMM 99.08     LegendNANA
15:00 22.9 5.5 32 LegendMM 14 19 LegendMM 99.10     LegendNANA
16:00 20.8 8.3 44 LegendMM 13 21 LegendMM 99.14     LegendNANA
17:00 18.9 8.6 51 LegendMM 12 23 LegendMM 99.19     LegendNANA
18:00 16.9 7.3 53 LegendMM 15 26 LegendMM 99.29     LegendNANA
19:00 15.0 7.5 60 LegendMM 11 16 LegendMM 99.38     LegendNANA
20:00 13.9 7.1 63 LegendMM 19 7 LegendMM 99.42     LegendNANA
21:00 13.6 6.9 64 LegendMM 11 10 LegendMM 99.39     LegendNANA
22:00 12.9 6.7 66 LegendMM 10 7 LegendMM 99.39     LegendNANA
23:00 12.2 7.2 72 LegendMM 10 12 LegendMM 99.39     LegendNANA

Notes on Data Quality.

Legend

  • E = Estimated
  • M = Missing
  • NA = Not Available*
  • [empty] = Indicates an unobserved value
Date modified: